This is the latest recevied weather packets stored in our database for station/object W5ADC. If no packets are shown the sender has not sent any weather packets the latest 10 day(s).
| Time | Temp. | Humidity | Pressure | Rain* | Wind** | Luminosity | Snow |
|---|---|---|---|---|---|---|---|
| 1778004027 | 27.78° C | 71% | 1001.1 hPa | 0 mm | - | 429 W/m² | - |
| 1778003726 | 27.22° C | 73% | 1001.2 hPa | 0 mm | - | 450 W/m² | - |
| 1778003424 | 27.22° C | 72% | 1001.2 hPa | 0 mm | - | 491 W/m² | - |
| 1778003121 | 27.22° C | 72% | 1001.1 hPa | 0 mm | - | 620 W/m² | - |
| 1778002816 | 26.67° C | 72% | 1001.3 hPa | 0 mm | - | 424 W/m² | - |
| 1778002513 | 27.22° C | 73% | 1001.3 hPa | 0 mm | - | 480 W/m² | - |
| 1778002210 | 27.22° C | 73% | 1001.3 hPa | 0 mm | - | 486 W/m² | - |
| 1778001908 | 26.67° C | 73% | 1001.4 hPa | 0 mm | - | 429 W/m² | - |
| 1778001603 | 26.67° C | 74% | 1001.4 hPa | 0 mm | - | 474 W/m² | - |
| 1778001299 | 26.11° C | 74% | 1001.6 hPa | 0 mm | - | 493 W/m² | - |
| 1778000996 | 26.11° C | 75% | 1001.5 hPa | 0 mm | - | 590 W/m² | - |
| 1778000693 | 26.11° C | 75% | 1001.5 hPa | 0 mm | - | 410 W/m² | - |
| 1778000389 | 26.11° C | 75% | 1001.5 hPa | 0 mm | - | 373 W/m² | - |
| 1778000085 | 26.11° C | 75% | 1001.5 hPa | 0 mm | - | 443 W/m² | - |
| 1777999780 | 26.11° C | 75% | 1001.3 hPa | 0 mm | - | 467 W/m² | - |
| 1777999477 | 26.11° C | 75% | 1001.5 hPa | 0 mm | - | 409 W/m² | - |
| 1777999175 | 25.56° C | 76% | 1001.3 hPa | 0 mm | - | 371 W/m² | - |
| 1777998873 | 26.11° C | 76% | 1001.3 hPa | 0 mm | - | 337 W/m² | - |
| 1777998572 | 25.56° C | 76% | 1001.3 hPa | 0 mm | - | 441 W/m² | - |
| 1777998267 | 25.56° C | 77% | 1001.3 hPa | 0 mm | - | 577 W/m² | - |
| 1777997964 | 25.56° C | 77% | 1001.3 hPa | 0 mm | - | 385 W/m² | - |
| 1777997661 | 25.56° C | 76% | 1001.4 hPa | 0 mm | - | 452 W/m² | - |
| 1777997359 | 25.56° C | 76% | 1001.3 hPa | 0 mm | - | 634 W/m² | - |
| 1777997057 | 25.56° C | 76% | 1001 hPa | 0 mm | - | 344 W/m² | - |
| 1777996753 | 25.56° C | 77% | 1001 hPa | 0 mm | - | 471 W/m² | - |
* Rain latest hour (hover to see other rain measurements)
** Current wind speed in m/s (hover to see current wind gust speed)